Weather History for KTCM - May, 2013

Change the Weather History Date:

Thursday, May 16, 2013

  Actual Average Record
Temperature  
Mean Temperature 60 °F -  
Max Temperature 71 °F 62 °F 82 °F (2006)
Min Temperature 50 °F 42 °F 35 °F (2002)
Degree Days  
Heating Degree Days 5    
Growing Degree Days 10 (Base 50)    
Moisture  
Dew Point 51 °F    
Average Humidity 87    
Maximum Humidity 100    
Minimum Humidity 38    
Precipitation  
Precipitation 0.00 in - - ()
Sea Level Pressure  
Sea Level Pressure 29.98 in    
Wind  
Wind Speed 2 mph (NW)    
Max Wind Speed 13 mph    
Max Gust Speed -    
Visibility 6 miles    
Events Fog , Rain    
Averages and records for this station are not official NWS values.
T = Trace of Precipitation, MM = Missing Value Source: NWS Daily Summary

Daily Weather History Graph

Daily Weather History Graph

Search for Another Location

Airport or City:

Trip Planner

Search our weather history database for the weather conditions in past years. The results will help you decide how hot, cold, wet, or windy it might be!

Date:

Astronomy

May. 16, 2013 Rise Set
Actual Time 5:32 AM PDT 8:40 PM PDT
Civil Twilight 4:56 AM PDT 9:17 PM PDT
Nautical Twilight 4:08 AM PDT 10:04 PM PDT
Astronomical Twilight 3:10 AM PDT 11:03 PM PDT
Moon 11:18 AM PDT (5/16) 12:57 AM PDT (5/16)
Length of Visible Light 16h 21m
Length of Day
15h 08m
Waxing Crescent, 36% of the Moon is Illuminated
May 16
Waxing Crescent
May 17
First Quarter
May 24
Full
May 31
Last Quarter
Jun 8
New

Hourly Weather History & Observations

Time (PDT) Temp. Dew Point Humidity Pressure Visibility Wind Dir Wind Speed Gust Speed Precip Events Conditions
12:58 AM 52.9 °F 52.7 °F 99% 30.04 in 10.0 mi Calm Calm - N/A   Overcast
1:58 AM 53.1 °F 52.9 °F 99% 30.02 in 10.0 mi East 2.3 mph - N/A   Overcast
2:43 AM 51.8 °F 51.8 °F 100% 30.00 in 2.5 mi ENE 2.3 mph - N/A   Clear
2:48 AM 50.0 °F 50.0 °F 100% 30.00 in 0.8 mi ENE 1.2 mph - N/A   Clear
2:53 AM 50.0 °F 50.0 °F 100% 30.00 in 0.5 mi Calm Calm - N/A Fog Fog
2:58 AM 50.4 °F 50.2 °F 99% 30.03 in 0.8 mi Calm Calm - N/A   Partly Cloudy
3:03 AM 50.0 °F 50.0 °F 100% 30.00 in 0.5 mi Calm Calm - N/A Fog Fog
3:08 AM 50.0 °F 50.0 °F 100% 30.00 in 0.5 mi Calm Calm - N/A Fog Fog
3:13 AM 51.8 °F 51.8 °F 100% 30.00 in 0.8 mi Calm Calm - N/A   Mostly Cloudy
3:18 AM 51.8 °F 51.8 °F 100% 30.00 in 1.2 mi North 2.3 mph - N/A   Mostly Cloudy
3:23 AM 51.8 °F 51.8 °F 100% 30.00 in 3.0 mi NNW 2.3 mph - N/A   Overcast
3:28 AM 51.8 °F 51.8 °F 100% 30.00 in 4.0 mi NNW 2.3 mph - N/A   Overcast
3:33 AM 51.8 °F 50.0 °F 94% 30.00 in 2.0 mi Calm Calm - N/A   Overcast
3:38 AM 50.0 °F 50.0 °F 100% 30.00 in 1.2 mi Calm Calm - N/A   Overcast
3:48 AM 50.0 °F 50.0 °F 100% 30.00 in 1.0 mi Calm Calm - N/A   Overcast
3:58 AM 50.4 °F 50.2 °F 99% 30.01 in 1.8 mi ENE 1.2 mph - N/A   Overcast
4:03 AM 50.0 °F 50.0 °F 100% 30.00 in 2.0 mi East 2.3 mph - N/A   Overcast
4:08 AM 50.0 °F 50.0 °F 100% 30.00 in 2.5 mi East 2.3 mph - N/A   Overcast
4:13 AM 50.0 °F 50.0 °F 100% 30.00 in 2.5 mi East 2.3 mph - N/A   Overcast
4:23 AM 50.0 °F 50.0 °F 100% 29.99 in 4.0 mi ENE 2.3 mph - N/A   Overcast
4:58 AM 51.1 °F 50.7 °F 99% 30.01 in 6.0 mi East 1.2 mph - N/A   Overcast
5:08 AM 50.0 °F 50.0 °F 100% 29.99 in 0.8 mi Calm Calm - N/A   Overcast
5:13 AM 50.0 °F 50.0 °F 100% 29.99 in 0.2 mi Calm Calm - N/A Fog Fog
5:18 AM 50.0 °F 50.0 °F 100% 29.98 in 0.2 mi Calm Calm - N/A Fog Fog
5:23 AM 50.0 °F 50.0 °F 100% 29.98 in 0.2 mi Calm Calm - N/A Fog Fog
5:28 AM 50.0 °F 50.0 °F 100% 29.99 in 0.5 mi Calm Calm - N/A Fog Fog
5:33 AM 51.8 °F 50.0 °F 94% 29.99 in 0.8 mi Calm Calm - N/A   Mostly Cloudy
5:38 AM 51.8 °F 51.8 °F 100% 29.98 in 4.0 mi Calm Calm - N/A   Mostly Cloudy
5:48 AM 51.8 °F 50.0 °F 94% 29.99 in 2.5 mi ESE 1.2 mph - N/A   Overcast
5:53 AM 50.0 °F 50.0 °F 100% 29.99 in 1.0 mi SSE 2.3 mph - N/A   Overcast
5:58 AM 50.2 °F 50.0 °F 99% 30.01 in 1.2 mi SE 2.3 mph - N/A   Overcast
6:03 AM 50.0 °F 50.0 °F 100% 29.98 in 7.0 mi ESE 1.2 mph - N/A   Overcast
6:58 AM 52.2 °F 52.0 °F 99% 30.01 in 10.0 mi Calm Calm - N/A   Overcast
7:33 AM 53.6 °F 53.6 °F 100% 29.99 in 10.0 mi NE 1.2 mph - N/A   Scattered Clouds
7:58 AM 55.9 °F 53.2 °F 91% 29.99 in 10.0 mi NE 2.3 mph - N/A   Clear
8:58 AM 59.0 °F 50.9 °F 74% 29.99 in 10.0 mi ENE 2.3 mph - N/A   Mostly Cloudy
9:48 AM 60.8 °F 51.8 °F 72% 29.98 in 10.0 mi Variable 4.6 mph - N/A   Overcast
9:58 AM 62.6 °F 51.8 °F 68% 29.99 in 10.0 mi NNE 5.8 mph - N/A   Overcast
10:13 AM 62.6 °F 50.0 °F 63% 29.97 in 10.0 mi NNE 6.9 mph - N/A   Mostly Cloudy
10:58 AM 62.8 °F 50.4 °F 64% 29.98 in 10.0 mi ENE 4.6 mph - N/A   Scattered Clouds
11:58 AM 63.3 °F 49.1 °F 60% 29.97 in 10.0 mi NNW 6.9 mph - N/A   Scattered Clouds
12:58 PM 66.0 °F 49.1 °F 54% 29.95 in 10.0 mi NNW 6.9 mph - N/A   Partly Cloudy
1:58 PM 67.5 °F 48.2 °F 50% 29.93 in 10.0 mi NW 8.1 mph - N/A   Clear
2:58 PM 66.2 °F 47.5 °F 51% 29.92 in 10.0 mi ENE 5.8 mph - N/A   Overcast
3:58 PM 69.8 °F 46.6 °F 43% 29.91 in 10.0 mi North 8.1 mph - N/A   Clear
4:58 PM 70.7 °F 43.7 °F 38% 29.89 in 10.0 mi Variable 6.9 mph - N/A   Scattered Clouds
5:58 PM 70.7 °F 44.6 °F 39% 29.89 in 10.0 mi WNW 6.9 mph - N/A   Clear
6:50 PM 62.6 °F 51.8 °F 68% 29.90 in 10.0 mi WSW 12.7 mph - N/A   Light Drizzle
6:58 PM 61.5 °F 52.2 °F 71% 29.91 in 10.0 mi WSW 11.5 mph - 0.00 in Rain Light Rain
7:11 PM 60.8 °F 51.8 °F 72% 29.91 in 10.0 mi SW 10.4 mph - N/A   Mostly Cloudy
7:56 PM 57.2 °F 55.4 °F 94% 29.94 in 10.0 mi South 3.5 mph - N/A   Overcast
7:58 PM 57.0 °F 54.7 °F 92% 29.95 in 10.0 mi South 4.6 mph - 0.00 in   Overcast
8:03 PM 57.2 °F 55.4 °F 94% 29.94 in 10.0 mi Variable 3.5 mph - N/A   Overcast
8:18 PM 57.2 °F 51.8 °F 82% 29.94 in 10.0 mi Variable 5.8 mph - N/A   Overcast
8:33 PM 57.2 °F 51.8 °F 82% 29.95 in 10.0 mi WSW 4.6 mph - N/A   Overcast
8:48 PM 57.2 °F 51.8 °F 82% 29.95 in 10.0 mi WSW 3.5 mph - N/A   Overcast
8:58 PM 57.2 °F 51.4 °F 81% 29.96 in 10.0 mi WSW 3.5 mph - N/A   Overcast
9:20 PM 57.2 °F 51.8 °F 82% 29.96 in 10.0 mi West 4.6 mph - N/A   Overcast
9:30 PM 57.2 °F 51.8 °F 82% 29.96 in 8.0 mi West 5.8 mph - N/A Rain Light Rain
9:45 PM 55.4 °F 51.8 °F 88% 29.97 in 10.0 mi Variable 3.5 mph - N/A Rain Light Rain
9:58 PM 55.4 °F 51.1 °F 85% 29.98 in 10.0 mi WSW 4.6 mph - 0.00 in Rain Light Rain
10:08 PM 55.4 °F 50.0 °F 82% 29.97 in 10.0 mi West 6.9 mph - N/A Rain Light Rain
10:27 PM 53.6 °F 50.0 °F 88% 29.98 in 10.0 mi West 4.6 mph - N/A   Overcast
10:34 PM 53.6 °F 50.0 °F 88% 29.98 in 10.0 mi WNW 4.6 mph - N/A   Light Drizzle
10:55 PM 53.6 °F 50.0 °F 88% 29.98 in 10.0 mi West 3.5 mph - N/A   Overcast
10:58 PM 54.0 °F 50.0 °F 86% 29.99 in 10.0 mi West 4.6 mph - 0.00 in   Overcast
11:48 PM 53.6 °F 50.0 °F 88% 29.98 in 10.0 mi SW 4.6 mph - N/A   Overcast
11:52 PM 53.6 °F 50.0 °F 88% 29.98 in 10.0 mi SSW 3.5 mph - N/A   Overcast
11:54 PM 53.6 °F 50.0 °F 88% 29.98 in 10.0 mi SSW 4.6 mph - N/A Rain Light Rain
11:58 PM 54.0 °F 50.5 °F 88% 29.99 in 10.0 mi Variable 4.6 mph - 0.00 in Rain Light Rain